Eastsound, WA
on Saturday, November 10, 2012

Saturday
Previous Day Next Day
Daily Summary
 ActualAverage (KBLI)Record (KBLI)
Temperature
Mean Temperature °F 45°F  
Max Temperature 41°F 51°F 63°F (1952)
Min Temperature 30°F 38°F 25°F (1982)
Degree Days
Heating Degree Days 30 20  
Month to date heating degree days 195  
Cooling Degree Days 0 0  
Month to date cooling degree days 0  
Year to date cooling degree days 42  
Moisture
Dew Point 21°F   
Average Humidity 55    
Maximum Humidity 86    
Minimum Humidity 42    
Precipitation
Precipitation 0.00 in 0.20 in 1.64 in (1990)
Month to date precipitation 1.93  
Year to date precipitation 27.74  
Wind
Wind Speed 6 mph   
Max Wind Speed 12 mph   
Max Gust Speed 21 mph   
Visibility 10 miles   
Events     

Key: T is trace of precipitation, MM is missing value
Source: NWS Daily Summary
Time(PST)TemperatureDew PointHumidity Pressure Visibility Wind DirectionWind SpeedGust SpeedPrecipitationEvents Conditions
2:15 AM 39.2°F 19.4°F 45% 30.00 in 10.0 miles NE 10.4 mph 20.7 mph N/A   Clear
2:35 AM 39.2°F 19.4°F 45% 30.00 in 10.0 miles NE 10.4 mph 17.3 mph N/A   Partly Cloudy
2:55 AM 39.2°F 19.4°F 45% 30.00 in 10.0 miles NE 11.5 mph 18.4 mph N/A   Mostly Cloudy
3:15 AM 39.2°F 19.4°F 45% 30.00 in 10.0 miles NE 8.1 mph 19.6 mph N/A   Mostly Cloudy
4:35 AM 37.4°F 17.6°F 45% 30.02 in 10.0 miles NE 5.8 mph - N/A   Overcast
4:55 AM 37.4°F 17.6°F 45% 30.03 in 10.0 miles NE 5.8 mph - N/A   Mostly Cloudy
5:15 AM 37.4°F 19.4°F 48% 30.03 in 10.0 miles NE 5.8 mph 16.1 mph N/A   Partly Cloudy
5:35 AM 37.4°F 19.4°F 48% 30.04 in 10.0 miles NE 9.2 mph 16.1 mph N/A   Partly Cloudy
5:55 AM 37.4°F 19.4°F 48% 30.04 in 10.0 miles ENE 6.9 mph - N/A   Clear
6:15 AM 37.4°F 19.4°F 48% 30.05 in 10.0 miles NE 9.2 mph - N/A   Partly Cloudy
6:35 AM 37.4°F 17.6°F 45% 30.05 in 10.0 miles NE 5.8 mph - N/A   Partly Cloudy
6:55 AM 37.4°F 17.6°F 45% 30.05 in 10.0 miles ENE 8.1 mph - N/A   Partly Cloudy
7:15 AM 37.4°F 17.6°F 45% 30.06 in 10.0 miles NE 9.2 mph - N/A   Clear
7:35 AM 37.4°F 17.6°F 45% 30.07 in 10.0 miles NE 8.1 mph - N/A   Clear
7:55 AM 37.4°F 19.4°F 48% 30.08 in 10.0 miles NE 5.8 mph - N/A   Clear
8:15 AM 37.4°F 19.4°F 48% 30.08 in 10.0 miles NE 10.4 mph 17.3 mph N/A   Clear
8:35 AM 37.4°F 17.6°F 45% 30.08 in 10.0 miles ENE 9.2 mph 19.6 mph N/A   Clear
8:55 AM 37.4°F 19.4°F 48% 30.08 in 10.0 miles ENE 10.4 mph 18.4 mph N/A   Clear
9:15 AM 37.4°F 17.6°F 45% 30.08 in 10.0 miles ENE 11.5 mph 20.7 mph N/A   Clear
9:35 AM 37.4°F 17.6°F 45% 30.09 in 10.0 miles NE 9.2 mph 16.1 mph N/A   Clear
9:55 AM 37.4°F 17.6°F 45% 30.10 in 10.0 miles NE 11.5 mph 16.1 mph N/A   Clear
10:15 AM 37.4°F 19.4°F 48% 30.11 in 10.0 miles NE 9.2 mph - N/A   Clear
10:35 AM 37.4°F 17.6°F 45% 30.11 in 10.0 miles NNE 6.9 mph - N/A   Clear
10:55 AM 39.2°F 17.6°F 42% 30.12 in 10.0 miles NE 6.9 mph - N/A   Clear
11:15 AM 39.2°F 19.4°F 45% 30.12 in 10.0 miles NE 8.1 mph - N/A   Clear
11:35 AM 39.2°F 17.6°F 42% 30.13 in 10.0 miles NE 4.6 mph - N/A   Clear
11:55 AM 39.2°F 19.4°F 45% 30.13 in 10.0 miles NNE 5.8 mph - N/A   Clear
12:15 PM 41.0°F 19.4°F 42% 30.13 in 9.0 miles North 5.8 mph - N/A   Clear
12:35 PM 41.0°F 19.4°F 42% 30.14 in 10.0 miles NNE 4.6 mph - N/A   Clear
12:55 PM 41.0°F 19.4°F 42% 30.14 in 10.0 miles North 4.6 mph - N/A   Clear
1:15 PM 41.0°F 19.4°F 42% 30.14 in 10.0 miles Calm Calm - N/A   Clear
1:35 PM 41.0°F 19.4°F 42% 30.14 in 10.0 miles North 4.6 mph - N/A   Clear
1:55 PM 41.0°F 19.4°F 42% 30.14 in 10.0 miles North 8.1 mph - N/A   Clear
2:15 PM 41.0°F 19.4°F 42% 30.13 in 10.0 miles NE 4.6 mph - N/A   Clear
2:35 PM 41.0°F 19.4°F 42% 30.13 in 10.0 miles NNE 3.5 mph - N/A   Clear
2:55 PM 41.0°F 19.4°F 42% 30.13 in 10.0 miles NNE 3.5 mph - N/A   Clear
3:15 PM 41.0°F 19.4°F 42% 30.14 in 10.0 miles Calm Calm - N/A   Clear
3:35 PM 41.0°F 19.4°F 42% 30.14 in 10.0 miles NNE 3.5 mph - N/A   Clear
3:55 PM 41.0°F 19.4°F 42% 30.14 in 10.0 miles Calm Calm - N/A   Clear
4:15 PM 37.4°F 23.0°F 56% 30.15 in 10.0 miles Calm Calm - N/A   Clear
4:35 PM 35.6°F 24.8°F 65% 30.15 in 10.0 miles Calm Calm - N/A   Clear
4:55 PM 33.8°F 24.8°F 70% 30.15 in 10.0 miles Calm Calm - N/A   Clear
5:15 PM 33.8°F 24.8°F 70% 30.16 in 10.0 miles Calm Calm - N/A   Clear
5:35 PM 32.0°F 24.8°F 75% 30.16 in 10.0 miles North - - N/A   Clear
5:55 PM 32.0°F 23.0°F 69% 30.16 in 10.0 miles Calm Calm - N/A   Clear
6:15 PM 32.0°F 23.0°F 69% 30.17 in 10.0 miles Calm Calm - N/A   Clear
6:35 PM 32.0°F 23.0°F 69% 30.17 in 10.0 miles North - - N/A   Clear
6:55 PM 32.0°F 24.8°F 75% 30.18 in 10.0 miles Calm Calm - N/A   Clear
7:15 PM 32.0°F 24.8°F 75% 30.18 in 10.0 miles Calm Calm - N/A   Clear
7:35 PM 32.0°F 24.8°F 75% 30.17 in 10.0 miles Calm Calm - N/A   Clear
7:55 PM 32.0°F 23.0°F 69% 30.17 in 10.0 miles SSE 3.5 mph - N/A   Clear
8:35 PM 32.0°F 23.0°F 69% 30.18 in 10.0 miles Calm Calm - N/A   Clear
8:55 PM 32.0°F 23.0°F 69% 30.18 in 10.0 miles Calm Calm - N/A   Clear
9:15 PM 32.0°F 23.0°F 69% 30.19 in 10.0 miles Calm Calm - N/A   Clear
9:35 PM 32.0°F 23.0°F 69% 30.19 in 10.0 miles Calm Calm - N/A   Clear
9:55 PM 32.0°F 23.0°F 69% 30.19 in 9.0 miles Calm Calm - N/A   Clear
10:35 PM 30.2°F 24.8°F 80% 30.19 in 9.0 miles Calm Calm - N/A   Clear
10:55 PM 30.2°F 26.6°F 86% 30.19 in 10.0 miles Calm Calm - N/A   Clear
11:15 PM 32.0°F 26.6°F 80% 30.19 in 10.0 miles Calm Calm - N/A   Clear
11:35 PM 30.2°F 26.6°F 86% 30.20 in 10.0 miles Calm Calm - N/A   Clear
11:55 PM 32.0°F 26.6°F 80% 30.20 in 10.0 miles Calm Calm - N/A   Clear
Moon Phase
Nov. 10 Nov. 13 Nov. 20 Nov. 28 Dec. 06
Sunrise:07:13 AM (PST) Moon Rise:03:08 AM (PST)11/10
Sunset:04:37 PM (PST) Moon Set:02:40 PM (PST)11/10

Copyright © 2014 The Weather Underground, Inc.